Deer Park, WA

9:54 AM PDT on August 27, 2016 (GMT -0700)
Deer Park

Weather History for KDEW - February, 2012

Change the Weather History Date:

Wednesday, February 15, 2012

  Actual Average Record
Temperature  
Mean Temperature 30 °F 30 °F  
Max Temperature 37 °F 39 °F 55 °F (2016)
Min Temperature 22 °F 21 °F 10 °F (2005)
Degree Days  
Heating Degree Days 35 35  
Month to date heating degree days 456 533  
Since 1 July heating degree days 4656 4929  
Cooling Degree Days 0 0  
Month to date cooling degree days 0 0  
Year to date cooling degree days 0 0  
Moisture  
Dew Point 27 °F    
Average Humidity 82    
Maximum Humidity 100    
Minimum Humidity 64    
Precipitation  
Precipitation 0.00 in 0.05 in 0.32 in (2014)
Month to date precipitation 0.57 0.95  
Year to date precipitation 2.65 3.58  
Sea Level Pressure  
Sea Level Pressure 30.23 in    
Wind  
Wind Speed 3 mph (SSW)    
Max Wind Speed 8 mph    
Max Gust Speed 12 mph    
Visibility 7 miles    
Events Fog    
T = Trace of Precipitation, MM = Missing Value Source: NWS Daily Summary

Daily Weather History Graph

Daily Weather History Graph

Search for Another Location

Airport or City:

Trip Planner

Search our weather history database for the weather conditions in past years. The results will help you decide how hot, cold, wet, or windy it might be!

Date:

Astronomy

Feb. 15, 2012 Rise Set
Actual Time 6:56 AM PST 5:11 PM PST
Civil Twilight 6:24 AM PST 5:43 PM PST
Nautical Twilight 5:48 AM PST 6:20 PM PST
Astronomical Twilight 5:12 AM PST 6:55 PM PST
Moon 2:09 AM PST (2/15) 10:56 AM PST (2/15)
Length of Visible Light 11h 19m
Length of Day
10h 15m
Last Quarter, 38% of the Moon is Illuminated
Feb 15
Last Quarter
Feb 21
New
Feb 29
First Quarter
Mar 8
Full
Mar 14
Last Quarter

Hourly Weather History & Observations

Time (PST) Temp. Windchill Dew Point Humidity Pressure Visibility Wind Dir Wind Speed Gust Speed Precip Events Conditions
12:53 AM 28.0 °F - 26.1 °F 92% 30.10 in 7.0 mi Calm Calm - N/A   Overcast
1:53 AM 28.9 °F - 27.0 °F 92% 30.12 in 9.0 mi Calm Calm - N/A   Overcast
2:53 AM 30.0 °F - 28.0 °F 92% 30.14 in 9.0 mi Calm Calm - N/A   Overcast
3:15 AM 28.4 °F - 28.4 °F 100% 30.08 in 9.0 mi Calm Calm - N/A   Overcast
3:53 AM 28.9 °F - 28.0 °F 96% 30.16 in 6.0 mi Calm Calm - N/A   Overcast
3:59 AM 30.2 °F 26.7 °F 28.4 °F 93% 30.09 in 1.8 mi SSE 3.5 mph - N/A   Overcast
4:09 AM 28.4 °F 23.3 °F 28.4 °F 100% 30.09 in 0.5 mi South 4.6 mph - N/A Fog Light Freezing Fog
4:53 AM 30.0 °F - 28.0 °F 92% 30.17 in 0.2 mi Calm Calm - N/A Fog Light Freezing Fog
5:37 AM 30.2 °F 25.4 °F 28.4 °F 93% 30.12 in 2.0 mi SSW 4.6 mph - N/A   Overcast
5:46 AM 30.2 °F 26.7 °F 28.4 °F 93% 30.12 in 5.0 mi SSW 3.5 mph - N/A   Overcast
5:53 AM 30.0 °F 26.5 °F 28.9 °F 96% 30.18 in 5.0 mi South 3.5 mph - N/A   Overcast
6:27 AM 28.4 °F - 28.4 °F 100% 30.13 in 1.8 mi Calm Calm - N/A   Overcast
6:53 AM 28.9 °F 25.2 °F 28.0 °F 96% 30.21 in 2.0 mi WNW 3.5 mph - N/A   Overcast
7:04 AM 28.4 °F - 28.4 °F 100% 30.15 in 4.0 mi Calm Calm - N/A   Overcast
7:17 AM 28.4 °F 22.2 °F 26.6 °F 93% 30.15 in 2.0 mi WNW 5.8 mph - N/A   Overcast
7:30 AM 28.4 °F 23.3 °F 26.6 °F 93% 30.16 in 4.0 mi WNW 4.6 mph - N/A   Overcast
7:43 AM 28.4 °F 22.2 °F 26.6 °F 93% 30.16 in 6.0 mi WNW 5.8 mph - N/A   Overcast
7:53 AM 28.9 °F 22.8 °F 27.0 °F 92% 30.24 in 7.0 mi West 5.8 mph - N/A   Overcast
8:53 AM 28.9 °F 25.2 °F 28.0 °F 96% 30.27 in 9.0 mi SW 3.5 mph - N/A   Mostly Cloudy
9:53 AM 30.0 °F 25.2 °F 28.0 °F 92% 30.29 in 10.0 mi SSE 4.6 mph - N/A   Overcast
10:53 AM 30.0 °F 25.2 °F 27.0 °F 88% 30.32 in 10.0 mi South 4.6 mph - N/A   Overcast
11:17 AM 30.2 °F - 26.6 °F 86% 30.25 in 10.0 mi Calm Calm - N/A   Overcast
11:53 AM 32.0 °F 25.6 °F 28.0 °F 85% 30.32 in 10.0 mi South 6.9 mph - N/A   Overcast
12:53 PM 33.1 °F 30.0 °F 27.0 °F 78% 30.32 in 10.0 mi ESE 3.5 mph - N/A   Mostly Cloudy
1:09 PM 33.8 °F - 28.4 °F 81% 30.25 in 10.0 mi Calm Calm - N/A   Scattered Clouds
1:53 PM 35.1 °F 31.0 °F 27.0 °F 72% 30.31 in 10.0 mi South 4.6 mph - N/A   Clear
2:53 PM 37.0 °F - 27.0 °F 67% 30.30 in 10.0 mi North - - N/A   Clear
3:53 PM 37.0 °F 32.4 °F 27.0 °F 67% 30.30 in 10.0 mi SSE 5.8 mph - N/A   Clear
4:53 PM 34.0 °F 29.8 °F 26.1 °F 73% 30.33 in 10.0 mi SSW 4.6 mph - N/A   Clear
5:53 PM 28.9 °F - 24.1 °F 82% 30.35 in 10.0 mi Calm Calm - N/A   Clear
6:53 PM 27.0 °F - 24.1 °F 89% 30.37 in 10.0 mi Calm Calm - N/A   Clear
7:53 PM 26.1 °F - 21.9 °F 84% 30.38 in 10.0 mi Calm Calm - N/A   Clear
8:53 PM 24.1 °F - 21.9 °F 91% 30.38 in 10.0 mi Calm Calm - N/A   Clear
9:53 PM 25.0 °F 20.7 °F 21.9 °F 88% 30.39 in 10.0 mi NW 3.5 mph - N/A   Clear
10:53 PM 21.9 °F - 19.9 °F 92% 30.40 in 10.0 mi Calm Calm - N/A   Scattered Clouds